SCP
0 0 0 0 0 0 0 0 0 0 0 0 0 0 0 0 0 0 0 0 0 0 0 0 0 0 0 0 0 0 0 0 0 0 0 0 0 0 0 0 0 0 0 0
0 0 0 0 0 0 0 0 0 0 0 0 0 0 0 0 0 0 0 0 0 0 0 0 0 0 0 0 0 0 0 0 0 0 0 0 0 0 0 0 0 0 0 0
0 0 0 0 0 0 0 0 0 0 0 0 0 0 0 0 0 0 0 0 0 0 0 0 0 0 0 0 0 0 0 0 0 0 0 0 0 0 0 0 0 0 0 0
0 0 0 0 0 0 0 0 0 0 0 0 0 0 0 0 0 0 0 0 0 0 0 0 0 0 0 0 0 0 0 0 0 0 0 0 0 0 0 0 0 0 0 0
0 0 0 0 0 0 0 0 0 0 0 0 0 0 0 0 0 0 0 0 0 0 0 0 0 0 0 0 0 0 0 0 0 0 0 0 0 0 0 0 0 0 0 0
0 0 0 0 0 0 0 0 0 0 0 0 0 0 0 0 0 0 0 0 0 0 0 0 0 0 0 0 0 0 0 0 0 0 0 0 0 0 0 0 0 0 0 0
0 0 0 0 0 0 0 0 0 0 0 0 0 0 0 0 0 0 0 0 0 0 0 0 0 0 0 0 0 0 0 0 0 0 0 0 0 0 0 0 0 0 0 0
0 0 0 0 0 0 0 0 0 0 0 0 0 0 -0 -0 0 0 0 0 0 0 0 0 0 0 0 0 0 0 0 0 0 0 0 0 0 0 0 0 0 0 0 0
0 0 0 0 0 0 0 0 0 0 0 0 0 0 -0 -0 0 0 0 0 0 0 0 0 0 0 0 0 0 0 0 0 0 0 0 0 0 0 0 0 0 0 0 0
0 0 0 0 0 0 0 0 0 0 0 0 0 0 0 0 0 0 0 0 0 0 0 0 0 0 0 0 0 0 0 0 0 0 0 0 0 0 0 0 0 0 0 0
0 0 0 0 0 0 0 0 0 0 0 0 0 0 0 0 0 0 0 0 0 0 0 0 0 0 0 0 0 0 0 0 0 0 0 0 0 0 0 0 0 0 0 0
0 0 0 0 0 0 0 0 0 0 0 0 0 0 0 0 0 0 0 0 0 0 0 0 0 0 0 0 0 0 0 0 0 0 0 0 0 0 0 0 0 0 0 0
0 0 0 0 0 0 0 0 0 0 0 0 0 0 0 0 0 0 0 0 0 0 0 0 0 0 0 0 0 0 0 0 0 0 0 0 0 0 0 0 0 0 0 0
0 0 0 0 0 0 0 0 0 0 0 0 0 0 0 0 0 0 0 0 0 0 0 0 0 0 0 0 0 0 0 0 0 0 0 0 0 0 0 0 0 0 0 0
0 0 0 0 0 0 0 0 0 0 0 0 0 0 0 0 0 0 0 0 0 0 0 0 0 0 0 0 0 0 0 0 0 0 0 0 0 0 0 0 0 0 0 0
0 0 0 0 0 0 0 0 0 0 -0 0 0 0 0 0 0 0 0 0 0 0 0 0 0 0 0 0 0 0 0 0 0 0 0 0 0 0 0 0 0 0 0 0
0 0 0 0 0 0 0 0 0 0 0 0 0 0 0 0 0 0 0 0 0 0 0 0 0 0 0 0 0 0 0 0 0 0 0 0 0 0 0 0 0 0 0 0
0 0 0 0 0 0 0 0 0 0 0 0 0 0 0 0 0 0 0 0 0 0 0 0 0 0 0 0 0 0 0 0 0 0 0 0 0 0 0 0 0 0 0 0
0 0 0 0 0 0 0 0 0 0 0 0 0 0 0 0 0 0 0 0 0 0 0 0 0 0 0 0 0 0 0 0 0 0 0 0 0 0 0 0 0 0 0 0
0 0 0 0 0 0 0 0 0 0 0 0 0 0 0 0 0 0 0 0 0 0 0 0 0 0 0 0 0 0 0 0 0 0 0 0 0 0 0 0 0 0 0 0
0 0 0 0 0 0 0 0 0 0 0 0 0 0 0 0 0 0 0 0 0 0 0 0 0 0 0 0 0 0 0 0 0 0 0 0 0 0 0 0 0 0 0 0
0 0 0 0 0 0 0 0 0 0 0 0 0 0 0 0 0 0 0 0 0 0 0 0 0 0 0 0 0 0 0 0 0 0 0 0 0 0 0 0 0 0 0 0
0 0 0 0 0 0 0 0 0 0 0 0 0 0 0 0 0 0 0 0 0 0 0 0 0 0 0 0 0 0 0 0 0 0 0 0 0 0 0 0 0 0 0 0
0 0 0 0 0 0 0 0 0 0 0 0 0 0 0 0 0 0 0 0 0 0 0 0 0 0 0 0 0 0 0 0 0 0 0 0 0 0 0 0 0 0 0 0
0 0 0 0 0 0 0 0 0 0 0 0 0 0 0 0 0 0 0 0 0 0 0 0 0 0 0 0 0 0 0 0 0 0 0 0 0 0 0 0 0 0 0 0
0 0 0 0 0 0 0 0 0 0 0 0 0 0 0 0 0 0 0 0 0 0 0 0 0 0 0 0 0 0 0 0 0 0 0 0 0 0 0 0 0 0 0 0
0 0 0 0 0 0 0 0 0 0 0 0 0 0 0 0 0 0 0 0 0 0 0 0 0 0 0 0 0 0 0 0 0 0 0 0 0 0 0 0 0 0 0 0
Wind_Speed
4 4 3 5 5 5 6 7 8 8 9 11 8 7 5 4 2 1 1 1 1 3 3 3 3 4 5 5 5 5 5 6 6 5 4 4 4 4 4 4 4 4 4 3
3 4 4 6 7 7 7 7 7 7 10 8 5 2 2 3 2 3 3 3 2 3 3 4 4 4 5 5 5 5 5 5 5 5 5 4 4 4 4 4 3 3 3 3
3 4 3 7 7 7 6 5 6 8 9 4 3 4 4 4 4 5 4 3 3 3 4 4 5 5 6 5 5 5 5 5 5 5 5 4 4 4 4 4 3 3 3 3
1 0 6 8 3 4 5 4 4 4 4 3 4 4 4 3 4 4 3 3 3 3 4 4 3 3 4 4 5 5 5 5 5 5 5 4 4 4 3 3 3 3 3 3
3 3 7 7 3 3 3 4 3 3 3 2 2 3 3 2 2 4 4 4 4 4 4 3 4 4 4 5 5 5 5 5 5 6 6 5 5 4 3 3 3 3 3 3
3 4 6 7 3 1 2 4 3 2 2 1 2 1 5 4 3 3 2 2 3 2 2 3 3 4 5 5 5 6 6 6 6 6 7 6 5 4 3 3 3 3 2 2
4 5 8 6 3 2 3 6 3 2 3 3 4 5 5 3 3 2 2 1 2 2 3 4 4 6 5 5 6 6 5 5 5 5 6 6 5 4 4 4 3 3 2 1
4 4 8 3 3 4 5 3 2 2 3 4 4 3 3 2 2 2 0 0 1 2 2 3 5 6 6 5 5 4 5 5 5 5 5 5 5 4 4 5 4 3 3 2
7 7 4 2 4 3 2 3 3 3 3 3 3 3 3 2 2 1 1 1 1 2 2 2 4 6 6 5 4 5 5 5 5 5 4 5 6 5 4 4 4 3 3 2
4 6 5 5 4 3 3 4 4 3 3 3 3 3 3 2 2 1 1 1 1 1 2 2 3 4 4 4 5 6 6 5 5 5 5 4 4 5 5 5 4 4 4 3
5 6 5 5 4 4 5 5 3 3 3 4 4 3 3 3 2 2 2 1 1 2 3 3 3 3 3 4 5 6 6 5 5 5 5 5 4 3 5 5 6 6 5 5
6 6 4 7 6 6 6 6 4 3 3 3 4 4 3 3 3 3 2 2 2 2 2 3 3 3 4 4 6 6 5 5 5 4 4 4 4 2 1 2 4 5 5 5
6 5 6 8 7 6 6 7 6 5 4 4 3 3 3 3 3 3 3 3 4 4 3 3 3 3 4 4 6 6 6 6 4 5 5 5 5 5 3 1 2 3 5 5
5 4 6 7 7 7 6 6 5 4 4 4 3 3 3 2 2 3 4 5 4 3 3 4 4 4 4 5 5 5 5 6 6 5 5 5 5 5 4 5 3 1 2 5
6 5 7 8 7 7 5 4 3 3 3 2 2 3 3 3 4 5 4 3 3 3 4 4 4 4 4 5 6 5 5 4 5 5 4 4 4 4 4 4 4 3 2 2
6 6 5 5 6 6 4 3 4 4 3 3 3 4 4 4 4 3 2 3 4 5 5 5 5 4 4 5 5 4 4 6 6 5 5 4 4 4 4 4 4 4 4 3
4 5 5 5 6 5 5 5 5 5 4 4 5 4 3 2 2 2 3 3 4 4 5 5 5 4 5 6 6 4 4 5 7 5 5 5 5 5 5 5 5 4 4 5
6 7 6 6 6 6 5 5 5 5 5 5 3 2 3 4 4 4 4 2 2 2 3 4 4 4 4 5 5 4 4 5 5 5 5 5 5 5 5 5 5 5 3 4
5 5 5 6 6 5 4 4 4 4 3 3 3 4 5 5 4 3 3 3 3 3 4 3 5 5 5 5 5 4 5 5 5 4 4 5 5 4 5 5 5 5 5 4
4 4 4 4 4 3 3 3 3 3 2 2 2 2 2 3 3 3 3 4 4 4 4 3 4 4 5 5 6 5 5 5 5 5 4 5 5 5 5 5 5 5 5 5
4 4 4 4 4 3 3 3 2 3 2 2 3 4 4 3 3 3 3 3 4 3 3 4 3 4 4 5 6 5 5 5 5 5 5 5 5 5 5 5 5 5 5 5
4 3 4 3 3 3 3 2 2 2 2 2 2 3 3 3 3 3 4 4 3 4 3 3 3 5 5 5 4 5 5 6 5 5 5 5 5 5 5 5 5 5 5 5
3 3 4 3 3 3 3 2 2 2 2 2 3 3 4 4 3 3 3 3 3 4 3 3 4 6 7 5 4 5 6 6 6 5 5 5 5 5 5 6 5 5 5 5
3 3 3 3 2 2 2 3 2 2 2 2 2 3 3 2 2 3 3 4 5 5 3 4 6 7 6 4 4 5 5 5 5 5 5 5 5 5 5 5 4 4 5 5
3 3 2 2 2 2 3 3 2 2 1 1 2 2 2 2 2 2 2 3 4 3 2 4 5 6 4 3 4 5 5 5 5 5 5 5 5 5 5 4 4 4 5 5
3 3 2 2 2 2 2 1 1 1 1 1 2 2 1 1 1 1 1 2 3 3 2 2 2 3 3 3 3 4 4 4 5 4 5 5 5 5 5 5 6 5 4 4
2 2 2 2 2 2 1 1 1 1 1 1 2 2 1 1 0 0 0 1 1 1 1 1 2 2 2 2 2 2 3 3 3 3 4 4 4 4 4 5 4 4 4 4
Wind_Direction
238 247 235 244 246 217 209 207 210 239 243 258 265 265 269 265 269 280 263 249 235 196 192 190 183 182 181 178 170 171 171 177 190 186 173 162 159 159 157 156 155 155 149 147
277 266 255 263 256 240 234 227 230 247 260 262 277 272 265 253 244 246 247 240 242 209 185 187 190 189 182 176 173 168 173 182 177 167 162 162 161 152 147 144 144 144 149 153
259 289 323 269 239 222 223 216 203 225 246 270 274 258 241 232 234 237 243 244 228 213 202 198 194 186 185 181 164 164 174 172 163 160 160 163 157 149 152 157 148 145 156 157
204 122 238 245 240 217 221 238 225 235 261 252 250 261 257 226 215 238 244 246 241 217 211 205 190 179 171 158 161 167 171 166 162 158 157 152 149 156 160 155 156 159 161 165
160 215 269 288 262 190 201 259 246 240 284 327 338 351 310 274 242 242 242 239 227 213 207 189 177 172 154 156 161 168 176 172 169 163 159 156 160 163 158 149 153 157 161 165
164 199 238 251 264 245 137 262 266 221 244 259 77 346 275 288 283 272 265 241 206 195 182 171 172 155 152 164 167 182 186 179 171 167 164 167 169 158 146 145 150 147 149 166
193 224 257 261 272 109 170 248 272 219 221 198 204 228 264 286 285 269 262 219 166 166 178 186 168 154 155 164 187 195 180 165 164 167 167 164 157 150 145 140 131 132 135 141
175 209 252 261 134 177 221 262 262 237 226 218 241 267 277 279 280 293 294 121 151 168 192 175 161 158 161 182 194 171 158 160 164 161 159 152 150 149 147 144 141 143 137 133
197 218 248 231 215 243 229 251 255 243 249 223 254 266 269 269 275 270 204 197 170 175 184 172 171 171 176 189 168 155 155 161 164 158 155 154 154 151 147 152 156 164 163 165
260 271 282 282 283 280 264 259 260 244 228 210 241 252 252 258 275 269 249 218 169 154 170 196 188 182 183 168 157 157 162 164 162 161 157 156 159 161 162 167 168 172 176 179
260 279 301 299 293 291 293 288 282 270 234 220 220 234 230 238 244 237 232 228 179 180 197 202 191 187 181 161 156 162 165 164 163 168 164 164 167 175 178 185 184 179 186 182
236 242 244 273 285 292 290 286 277 270 270 256 225 222 227 227 225 216 211 203 188 197 201 198 182 191 182 168 165 167 169 169 166 165 166 163 156 132 88 160 179 182 176 172
245 259 259 273 283 283 275 274 270 252 239 244 243 220 213 224 221 202 205 202 201 209 205 191 183 192 187 175 170 174 177 176 169 167 169 168 167 163 156 105 112 153 168 170
263 267 277 276 276 281 277 274 268 264 254 230 225 225 214 220 217 209 215 217 208 204 197 184 183 197 188 174 172 178 178 176 169 170 174 175 176 176 171 166 165 179 185 178
265 258 258 271 279 282 282 278 276 270 258 244 225 215 206 208 217 223 223 212 196 200 198 185 188 203 182 169 172 179 179 177 173 167 168 172 170 168 168 172 172 166 147 163
273 281 275 272 276 280 278 262 250 248 244 239 232 226 222 219 224 225 212 188 187 207 206 196 203 202 180 172 174 180 184 178 168 164 162 163 164 166 173 177 175 174 180 178
255 271 275 277 274 274 264 253 241 237 233 231 230 225 213 197 202 221 228 214 208 213 207 202 206 191 180 178 176 180 175 176 172 167 170 175 176 180 181 181 183 187 195 184
239 247 248 248 254 260 262 259 248 235 230 232 223 199 196 196 207 220 226 208 196 221 222 210 198 181 182 180 176 174 173 173 175 177 177 179 181 182 180 183 187 187 185 179
262 265 270 266 260 252 252 257 254 245 239 217 199 208 212 214 215 212 196 183 191 222 240 216 196 181 183 186 176 173 172 172 174 178 178 179 182 183 183 186 189 190 184 179
280 285 287 284 282 269 263 269 268 262 249 213 201 203 217 222 209 201 194 206 216 220 217 195 186 187 187 185 178 173 173 175 179 181 180 183 186 187 189 190 190 189 188 187
297 298 297 294 292 287 272 261 252 254 253 215 204 210 215 219 205 196 194 228 248 220 200 196 194 193 187 183 179 176 177 179 182 184 186 187 188 188 189 190 191 191 190 190
301 298 296 295 295 294 290 277 259 257 262 247 231 220 211 215 213 215 217 222 227 208 200 202 200 197 190 181 179 179 182 183 185 186 188 187 187 191 193 193 193 193 191 188
293 293 295 291 280 280 301 303 280 254 244 240 233 225 220 222 211 204 233 236 208 210 210 209 208 197 187 181 182 184 185 187 188 189 190 189 189 190 192 192 192 189 187 186
302 303 298 299 313 330 316 301 291 276 263 258 253 240 223 222 248 241 232 214 205 210 216 212 203 196 188 187 183 185 189 192 192 192 190 189 189 188 187 185 185 185 184 183
304 304 315 328 312 291 283 289 302 307 307 303 298 288 265 233 229 242 227 204 199 203 214 212 207 205 200 194 191 191 193 195 192 187 187 187 187 185 184 181 182 182 183 185
300 295 284 273 272 277 281 282 287 291 295 302 305 307 308 305 268 238 206 191 184 187 192 198 198 202 200 195 195 193 191 192 191 190 187 186 184 183 183 183 183 185 186 185
316 319 320 324 324 314 298 280 269 273 262 252 281 294 295 306 326 310 181 167 169 171 177 189 189 185 181 180 180 179 179 179 180 180 179 178 178 181 182 181 183 181 181 181